Wetterdaten: Donnerstag, 31.12.2015
Datum Zeit Temp. A. Feuchte A. Luftdruck Regen Wind Richtung Richtung Sonnenschein ET UV Solar Taupunkt Windchill Windben Empfang
31.12.2015 00:01 -1,7 C 78 % 1025,9 hPa 0,0 l/m 21,4 km/h (4 Bft) O-NO 72 0 min 0,000 mm 0,0 UV-I 0 W/m -5,0 C -12,5 C 32,2 km/h (5 Bft) 96,15 %
31.12.2015 00:05 -1,7 C 78 % 1026,0 hPa 0,0 l/m 21,0 km/h (4 Bft) NO 53 0 min 0,000 mm 0,0 UV-I 0 W/m -5,0 C -12,3 C 32,2 km/h (5 Bft) 100,00 %
31.12.2015 00:10 -1,7 C 77 % 1025,7 hPa 0,0 l/m 25,9 km/h (4 Bft) O 86 0 min 0,000 mm 0,0 UV-I 0 W/m -5,2 C -14,4 C 37,0 km/h (5 Bft) 98,39 %
31.12.2015 00:15 -1,8 C 78 % 1025,6 hPa 0,0 l/m 22,4 km/h (4 Bft) O 80 0 min 0,000 mm 0,0 UV-I 0 W/m -5,1 C -13,1 C 37,0 km/h (5 Bft) 97,32 %
31.12.2015 00:20 -1,8 C 77 % 1025,5 hPa 0,0 l/m 26,5 km/h (4 Bft) O 88 0 min 0,000 mm 0,0 UV-I 0 W/m -5,3 C -14,7 C 40,2 km/h (6 Bft) 97,44 %
31.12.2015 00:25 -1,8 C 77 % 1025,5 hPa 0,0 l/m 23,4 km/h (4 Bft) NO 43 0 min 0,000 mm 0,0 UV-I 0 W/m -5,3 C -13,5 C 37,0 km/h (5 Bft) 97,32 %
31.12.2015 00:30 -1,8 C 76 % 1025,5 hPa 0,0 l/m 25,6 km/h (4 Bft) NO 55 0 min 0,000 mm 0,0 UV-I 0 W/m -5,5 C -14,4 C 38,6 km/h (5 Bft) 96,67 %
31.12.2015 00:35 -1,8 C 76 % 1025,5 hPa 0,0 l/m 22,6 km/h (4 Bft) O 95 0 min 0,000 mm 0,0 UV-I 0 W/m -5,5 C -13,2 C 33,8 km/h (5 Bft) 97,58 %
31.12.2015 00:40 -1,9 C 76 % 1025,4 hPa 0,0 l/m 23,5 km/h (4 Bft) NO 34 0 min 0,000 mm 0,0 UV-I 0 W/m -5,6 C -13,7 C 37,0 km/h (5 Bft) 97,32 %
31.12.2015 00:45 -1,9 C 76 % 1025,3 hPa 0,0 l/m 24,7 km/h (4 Bft) O 86 0 min 0,000 mm 0,0 UV-I 0 W/m -5,6 C -14,2 C 37,0 km/h (5 Bft) 97,37 %
31.12.2015 00:50 -2,0 C 76 % 1025,3 hPa 0,0 l/m 28,1 km/h (4 Bft) O 101 0 min 0,000 mm 0,0 UV-I 0 W/m -5,6 C -15,6 C 45,1 km/h (6 Bft) 99,15 %
31.12.2015 00:55 -2,0 C 75 % 1025,2 hPa 0,0 l/m 27,8 km/h (4 Bft) O-NO 67 0 min 0,000 mm 0,0 UV-I 0 W/m -5,8 C -15,5 C 41,8 km/h (6 Bft) 98,36 %
31.12.2015 01:00 -2,0 C 75 % 1025,2 hPa 0,0 l/m 28,2 km/h (4 Bft) O 84 0 min 0,051 mm 0,0 UV-I 0 W/m -5,8 C -15,6 C 40,2 km/h (6 Bft) 99,15 %
31.12.2015 01:05 -2,1 C 75 % 1025,1 hPa 0,0 l/m 26,5 km/h (4 Bft) O-NO 66 0 min 0,000 mm 0,0 UV-I 0 W/m -5,9 C -15,1 C 35,4 km/h (5 Bft) 100,00 %
31.12.2015 01:10 -2,1 C 76 % 1025,1 hPa 0,0 l/m 26,0 km/h (4 Bft) O-NO 62 0 min 0,000 mm 0,0 UV-I 0 W/m -5,7 C -15,0 C 40,2 km/h (6 Bft) 100,00 %
31.12.2015 01:15 -2,1 C 75 % 1025,0 hPa 0,0 l/m 26,5 km/h (4 Bft) O 82 0 min 0,000 mm 0,0 UV-I 0 W/m -5,9 C -15,1 C 40,2 km/h (6 Bft) 99,09 %
31.12.2015 01:20 -2,2 C 75 % 1025,0 hPa 0,0 l/m 24,2 km/h (4 Bft) O-NO 67 0 min 0,000 mm 0,0 UV-I 0 W/m -6,0 C -14,4 C 37,0 km/h (5 Bft) 98,33 %
31.12.2015 01:25 -2,2 C 75 % 1024,9 hPa 0,0 l/m 27,9 km/h (4 Bft) NO 54 0 min 0,000 mm 0,0 UV-I 0 W/m -6,0 C -15,8 C 37,0 km/h (5 Bft) 99,10 %
31.12.2015 01:30 -2,2 C 75 % 1025,0 hPa 0,0 l/m 28,6 km/h (4 Bft) O-NO 78 0 min 0,000 mm 0,0 UV-I 0 W/m -6,0 C -16,0 C 41,8 km/h (6 Bft) 100,00 %
31.12.2015 01:35 -2,2 C 74 % 1024,9 hPa 0,0 l/m 24,2 km/h (4 Bft) NO 52 0 min 0,000 mm 0,0 UV-I 0 W/m -6,2 C -14,4 C 33,8 km/h (5 Bft) 99,19 %
31.12.2015 01:40 -2,3 C 75 % 1025,0 hPa 0,0 l/m 24,7 km/h (4 Bft) O 81 0 min 0,000 mm 0,0 UV-I 0 W/m -6,1 C -14,7 C 35,4 km/h (5 Bft) 99,12 %
31.12.2015 01:45 -2,3 C 75 % 1025,0 hPa 0,0 l/m 24,3 km/h (4 Bft) O-NO 74 0 min 0,000 mm 0,0 UV-I 0 W/m -6,1 C -14,6 C 33,8 km/h (5 Bft) 98,35 %
31.12.2015 01:50 -2,4 C 75 % 1025,1 hPa 0,0 l/m 20,0 km/h (4 Bft) O-NO 59 0 min 0,000 mm 0,0 UV-I 0 W/m -6,2 C -12,7 C 29,0 km/h (5 Bft) 99,12 %
31.12.2015 01:55 -2,4 C 75 % 1025,1 hPa 0,0 l/m 22,2 km/h (4 Bft) O 91 0 min 0,000 mm 0,0 UV-I 0 W/m -6,2 C -13,8 C 30,6 km/h (5 Bft) 99,08 %
31.12.2015 02:00 -2,4 C 74 % 1025,1 hPa 0,0 l/m 22,0 km/h (4 Bft) O-NO 63 0 min 0,051 mm 0,0 UV-I 0 W/m -6,4 C -13,7 C 30,6 km/h (5 Bft) 99,17 %
31.12.2015 02:05 -2,4 C 74 % 1025,0 hPa 0,0 l/m 24,0 km/h (4 Bft) O-NO 76 0 min 0,000 mm 0,0 UV-I 0 W/m -6,4 C -14,6 C 37,0 km/h (5 Bft) 100,00 %
31.12.2015 02:10 -2,6 C 75 % 1025,2 hPa 0,0 l/m 19,9 km/h (4 Bft) NO 54 0 min 0,000 mm 0,0 UV-I 0 W/m -6,4 C -12,9 C 32,2 km/h (5 Bft) 100,00 %
31.12.2015 02:15 -2,6 C 74 % 1025,2 hPa 0,0 l/m 21,5 km/h (4 Bft) O-NO 69 0 min 0,000 mm 0,0 UV-I 0 W/m -6,6 C -13,7 C 35,4 km/h (5 Bft) 98,94 %
31.12.2015 02:20 -2,6 C 74 % 1025,2 hPa 0,0 l/m 23,0 km/h (4 Bft) NO 46 0 min 0,000 mm 0,0 UV-I 0 W/m -6,6 C -14,4 C 30,6 km/h (5 Bft) 96,45 %
31.12.2015 02:25 -2,7 C 74 % 1025,2 hPa 0,0 l/m 21,2 km/h (4 Bft) NO 53 0 min 0,000 mm 0,0 UV-I 0 W/m -6,7 C -13,7 C 32,2 km/h (5 Bft) 97,58 %
31.12.2015 02:30 -2,7 C 74 % 1025,1 hPa 0,0 l/m 20,2 km/h (4 Bft) NO 50 0 min 0,000 mm 0,0 UV-I 0 W/m -6,7 C -13,2 C 35,4 km/h (5 Bft) 96,23 %
31.12.2015 02:35 -2,7 C 74 % 1025,1 hPa 0,0 l/m 20,2 km/h (4 Bft) O-NO 62 0 min 0,000 mm 0,0 UV-I 0 W/m -6,7 C -13,2 C 32,2 km/h (5 Bft) 96,03 %
31.12.2015 02:40 -2,8 C 75 % 1025,1 hPa 0,0 l/m 19,4 km/h (3 Bft) O-NO 63 0 min 0,000 mm 0,0 UV-I 0 W/m -6,6 C -12,9 C 29,0 km/h (5 Bft) 97,39 %
31.12.2015 02:45 -2,8 C 74 % 1025,1 hPa 0,0 l/m 19,6 km/h (3 Bft) O 92 0 min 0,000 mm 0,0 UV-I 0 W/m -6,8 C -13,0 C 29,0 km/h (5 Bft) 95,73 %
31.12.2015 02:50 -2,8 C 74 % 1025,1 hPa 0,0 l/m 21,7 km/h (4 Bft) O-NO 57 0 min 0,000 mm 0,0 UV-I 0 W/m -6,8 C -14,1 C 30,6 km/h (5 Bft) 97,39 %
31.12.2015 02:55 -2,8 C 74 % 1025,0 hPa 0,0 l/m 17,5 km/h (3 Bft) O 80 0 min 0,000 mm 0,0 UV-I 0 W/m -6,8 C -11,9 C 25,7 km/h (4 Bft) 100,00 %
31.12.2015 03:00 -2,9 C 74 % 1024,9 hPa 0,0 l/m 21,6 km/h (4 Bft) O-NO 76 0 min 0,025 mm 0,0 UV-I 0 W/m -6,9 C -14,2 C 29,0 km/h (5 Bft) 98,17 %
31.12.2015 03:05 -2,9 C 75 % 1025,0 hPa 0,0 l/m 17,1 km/h (3 Bft) O-NO 63 0 min 0,000 mm 0,0 UV-I 0 W/m -6,7 C -11,8 C 27,4 km/h (4 Bft) 100,00 %
31.12.2015 03:10 -3,0 C 75 % 1024,9 hPa 0,0 l/m 19,0 km/h (3 Bft) O 80 0 min 0,000 mm 0,0 UV-I 0 W/m -6,8 C -13,0 C 30,6 km/h (5 Bft) 100,00 %
31.12.2015 03:15 -3,1 C 75 % 1024,9 hPa 0,0 l/m 16,3 km/h (3 Bft) O 80 0 min 0,000 mm 0,0 UV-I 0 W/m -6,9 C -11,6 C 24,1 km/h (4 Bft) 98,39 %
31.12.2015 03:20 -3,1 C 75 % 1024,9 hPa 0,0 l/m 18,3 km/h (3 Bft) O-NO 61 0 min 0,000 mm 0,0 UV-I 0 W/m -6,9 C -12,7 C 27,4 km/h (4 Bft) 99,15 %
31.12.2015 03:25 -3,2 C 75 % 1024,8 hPa 0,0 l/m 16,5 km/h (3 Bft) O 80 0 min 0,000 mm 0,0 UV-I 0 W/m -7,0 C -11,8 C 25,7 km/h (4 Bft) 100,00 %
31.12.2015 03:30 -3,2 C 75 % 1024,8 hPa 0,0 l/m 16,6 km/h (3 Bft) NO 56 0 min 0,000 mm 0,0 UV-I 0 W/m -7,0 C -11,9 C 25,7 km/h (4 Bft) 99,21 %
31.12.2015 03:35 -3,2 C 75 % 1024,8 hPa 0,0 l/m 18,7 km/h (3 Bft) O-NO 76 0 min 0,000 mm 0,0 UV-I 0 W/m -7,0 C -13,1 C 27,4 km/h (4 Bft) 100,00 %
31.12.2015 03:40 -3,3 C 75 % 1024,8 hPa 0,0 l/m 17,3 km/h (3 Bft) O-NO 65 0 min 0,000 mm 0,0 UV-I 0 W/m -7,1 C -12,4 C 27,4 km/h (4 Bft) 98,45 %
31.12.2015 03:45 -3,3 C 75 % 1024,8 hPa 0,0 l/m 17,5 km/h (3 Bft) O-NO 59 0 min 0,000 mm 0,0 UV-I 0 W/m -7,1 C -12,5 C 30,6 km/h (5 Bft) 100,00 %
31.12.2015 03:50 -3,3 C 75 % 1024,7 hPa 0,0 l/m 19,9 km/h (4 Bft) O-NO 63 0 min 0,000 mm 0,0 UV-I 0 W/m -7,1 C -13,8 C 27,4 km/h (4 Bft) 98,25 %
31.12.2015 03:55 -3,3 C 74 % 1024,6 hPa 0,0 l/m 21,2 km/h (4 Bft) NO 51 0 min 0,000 mm 0,0 UV-I 0 W/m -7,3 C -14,5 C 27,4 km/h (4 Bft) 100,00 %
31.12.2015 04:00 -3,4 C 75 % 1024,7 hPa 0,0 l/m 20,0 km/h (4 Bft) NO 41 0 min 0,025 mm 0,0 UV-I 0 W/m -7,2 C -14,0 C 30,6 km/h (5 Bft) 100,00 %
31.12.2015 04:05 -3,4 C 76 % 1024,7 hPa 0,0 l/m 16,9 km/h (3 Bft) O-NO 62 0 min 0,000 mm 0,0 UV-I 0 W/m -7,0 C -12,3 C 27,4 km/h (4 Bft) 100,00 %
31.12.2015 04:10 -3,5 C 75 % 1024,7 hPa 0,0 l/m 15,2 km/h (3 Bft) NO 38 0 min 0,000 mm 0,0 UV-I 0 W/m -7,3 C -11,4 C 22,5 km/h (4 Bft) 100,00 %
31.12.2015 04:15 -3,6 C 76 % 1024,6 hPa 0,0 l/m 17,1 km/h (3 Bft) O-NO 71 0 min 0,000 mm 0,0 UV-I 0 W/m -7,2 C -12,7 C 24,1 km/h (4 Bft) 100,00 %
31.12.2015 04:20 -3,6 C 76 % 1024,7 hPa 0,0 l/m 16,9 km/h (3 Bft) O-NO 76 0 min 0,000 mm 0,0 UV-I 0 W/m -7,2 C -12,6 C 25,7 km/h (4 Bft) 97,44 %
31.12.2015 04:25 -3,7 C 76 % 1024,7 hPa 0,0 l/m 16,0 km/h (3 Bft) NO 35 0 min 0,000 mm 0,0 UV-I 0 W/m -7,3 C -12,1 C 24,1 km/h (4 Bft) 95,76 %
31.12.2015 04:30 -3,7 C 76 % 1024,8 hPa 0,0 l/m 13,7 km/h (3 Bft) NO 51 0 min 0,000 mm 0,0 UV-I 0 W/m -7,3 C -10,6 C 20,9 km/h (4 Bft) 97,37 %
31.12.2015 04:35 -3,8 C 76 % 1024,7 hPa 0,0 l/m 15,4 km/h (3 Bft) O-NO 58 0 min 0,000 mm 0,0 UV-I 0 W/m -7,4 C -11,9 C 22,5 km/h (4 Bft) 95,76 %
31.12.2015 04:40 -3,8 C 76 % 1024,7 hPa 0,0 l/m 17,3 km/h (3 Bft) O-NO 59 0 min 0,000 mm 0,0 UV-I 0 W/m -7,4 C -13,0 C 27,4 km/h (4 Bft) 97,52 %
31.12.2015 04:45 -3,8 C 76 % 1024,7 hPa 0,0 l/m 19,7 km/h (3 Bft) NO 41 0 min 0,000 mm 0,0 UV-I 0 W/m -7,4 C -14,4 C 29,0 km/h (5 Bft) 97,37 %
31.12.2015 04:50 -3,8 C 76 % 1024,7 hPa 0,0 l/m 19,6 km/h (3 Bft) O-NO 67 0 min 0,000 mm 0,0 UV-I 0 W/m -7,4 C -14,3 C 30,6 km/h (5 Bft) 97,46 %
31.12.2015 04:55 -3,8 C 77 % 1024,7 hPa 0,0 l/m 14,2 km/h (3 Bft) O-NO 65 0 min 0,000 mm 0,0 UV-I 0 W/m -7,2 C -11,0 C 22,5 km/h (4 Bft) 98,21 %
31.12.2015 05:00 -3,9 C 77 % 1024,9 hPa 0,0 l/m 13,6 km/h (3 Bft) NO 55 0 min 0,026 mm 0,0 UV-I 0 W/m -7,3 C -10,7 C 24,1 km/h (4 Bft) 97,50 %
31.12.2015 05:05 -4,0 C 78 % 1025,0 hPa 0,0 l/m 11,1 km/h (2 Bft) O-NO 63 0 min 0,000 mm 0,0 UV-I 0 W/m -7,3 C -8,9 C 17,7 km/h (3 Bft) 97,09 %
31.12.2015 05:10 -4,1 C 78 % 1025,1 hPa 0,0 l/m 9,7 km/h (2 Bft) O-NO 57 0 min 0,000 mm 0,0 UV-I 0 W/m -7,4 C -7,7 C 16,1 km/h (3 Bft) 99,24 %
31.12.2015 05:15 -4,1 C 78 % 1025,1 hPa 0,0 l/m 10,1 km/h (2 Bft) NO 47 0 min 0,000 mm 0,0 UV-I 0 W/m -7,4 C -8,1 C 19,3 km/h (3 Bft) 100,00 %
31.12.2015 05:20 -4,1 C 78 % 1025,3 hPa 0,0 l/m 10,0 km/h (2 Bft) O-NO 59 0 min 0,000 mm 0,0 UV-I 0 W/m -7,4 C -8,0 C 17,7 km/h (3 Bft) 99,15 %
31.12.2015 05:25 -4,2 C 78 % 1025,3 hPa 0,0 l/m 11,0 km/h (2 Bft) O-NO 67 0 min 0,000 mm 0,0 UV-I 0 W/m -7,4 C -9,0 C 20,9 km/h (4 Bft) 100,00 %
31.12.2015 05:30 -4,2 C 78 % 1025,4 hPa 0,0 l/m 12,2 km/h (2 Bft) O 79 0 min 0,000 mm 0,0 UV-I 0 W/m -7,4 C -10,0 C 20,9 km/h (4 Bft) 100,00 %
31.12.2015 05:35 -4,2 C 78 % 1025,4 hPa 0,0 l/m 11,3 km/h (2 Bft) NO 46 0 min 0,000 mm 0,0 UV-I 0 W/m -7,4 C -9,3 C 17,7 km/h (3 Bft) 100,00 %
31.12.2015 05:40 -4,2 C 78 % 1025,4 hPa 0,0 l/m 14,5 km/h (3 Bft) O-NO 65 0 min 0,000 mm 0,0 UV-I 0 W/m -7,4 C -11,7 C 20,9 km/h (4 Bft) 99,17 %
31.12.2015 05:45 -4,2 C 78 % 1025,6 hPa 0,0 l/m 12,7 km/h (3 Bft) NO 50 0 min 0,000 mm 0,0 UV-I 0 W/m -7,4 C -10,4 C 22,5 km/h (4 Bft) 99,08 %
31.12.2015 05:50 -4,3 C 79 % 1025,7 hPa 0,0 l/m 11,1 km/h (2 Bft) O-NO 59 0 min 0,000 mm 0,0 UV-I 0 W/m -7,4 C -9,2 C 19,3 km/h (3 Bft) 100,00 %
31.12.2015 05:55 -4,3 C 79 % 1025,7 hPa 0,0 l/m 11,3 km/h (2 Bft) O-NO 62 0 min 0,000 mm 0,0 UV-I 0 W/m -7,4 C -9,4 C 19,3 km/h (3 Bft) 98,17 %
31.12.2015 06:00 -4,3 C 79 % 1025,7 hPa 0,0 l/m 12,0 km/h (2 Bft) O 79 0 min 0,025 mm 0,0 UV-I 0 W/m -7,4 C -10,0 C 19,3 km/h (3 Bft) 99,19 %
31.12.2015 06:05 -4,4 C 80 % 1025,8 hPa 0,0 l/m 7,9 km/h (2 Bft) O 83 0 min 0,000 mm 0,0 UV-I 0 W/m -7,3 C -6,2 C 12,9 km/h (3 Bft) 98,15 %
31.12.2015 06:10 -4,5 C 80 % 1025,8 hPa 0,0 l/m 9,8 km/h (2 Bft) O-NO 69 0 min 0,000 mm 0,0 UV-I 0 W/m -7,4 C -8,2 C 16,1 km/h (3 Bft) 98,39 %
31.12.2015 06:15 -4,6 C 80 % 1025,8 hPa 0,0 l/m 7,6 km/h (2 Bft) NO 48 0 min 0,000 mm 0,0 UV-I 0 W/m -7,5 C -6,0 C 12,9 km/h (3 Bft) 100,00 %
31.12.2015 06:20 -4,6 C 80 % 1025,8 hPa 0,0 l/m 9,6 km/h (2 Bft) NO 52 0 min 0,000 mm 0,0 UV-I 0 W/m -7,5 C -8,1 C 16,1 km/h (3 Bft) 96,52 %
31.12.2015 06:25 -4,7 C 81 % 1025,8 hPa 0,0 l/m 11,2 km/h (2 Bft) O-NO 66 0 min 0,000 mm 0,0 UV-I 0 W/m -7,4 C -9,7 C 19,3 km/h (3 Bft) 98,21 %
31.12.2015 06:30 -4,7 C 81 % 1025,8 hPa 0,0 l/m 12,1 km/h (2 Bft) NO 38 0 min 0,000 mm 0,0 UV-I 0 W/m -7,4 C -10,5 C 19,3 km/h (3 Bft) 96,75 %
31.12.2015 06:35 -4,7 C 81 % 1025,9 hPa 0,0 l/m 11,3 km/h (2 Bft) NO 47 0 min 0,000 mm 0,0 UV-I 0 W/m -7,4 C -9,8 C 19,3 km/h (3 Bft) 97,25 %
31.12.2015 06:40 -4,7 C 81 % 1025,9 hPa 0,0 l/m 12,2 km/h (2 Bft) O-NO 65 0 min 0,000 mm 0,0 UV-I 0 W/m -7,4 C -10,6 C 17,7 km/h (3 Bft) 96,69 %
31.12.2015 06:45 -4,7 C 81 % 1025,8 hPa 0,0 l/m 13,2 km/h (3 Bft) O-NO 72 0 min 0,000 mm 0,0 UV-I 0 W/m -7,4 C -11,4 C 20,9 km/h (4 Bft) 96,75 %
31.12.2015 06:50 -4,7 C 81 % 1025,9 hPa 0,0 l/m 13,7 km/h (3 Bft) O 83 0 min 0,000 mm 0,0 UV-I 0 W/m -7,4 C -11,7 C 20,9 km/h (4 Bft) 97,25 %
31.12.2015 06:55 -4,7 C 81 % 1026,0 hPa 0,0 l/m 16,0 km/h (3 Bft) O-NO 65 0 min 0,000 mm 0,0 UV-I 0 W/m -7,4 C -13,3 C 25,7 km/h (4 Bft) 94,31 %
31.12.2015 07:00 -4,7 C 81 % 1026,0 hPa 0,0 l/m 15,3 km/h (3 Bft) O-NO 62 0 min 0,000 mm 0,0 UV-I 0 W/m -7,4 C -12,9 C 24,1 km/h (4 Bft) 100,00 %
31.12.2015 07:05 -4,6 C 81 % 1026,0 hPa 0,0 l/m 15,4 km/h (3 Bft) O-NO 76 0 min 0,025 mm 0,0 UV-I 0 W/m -7,4 C -12,8 C 22,5 km/h (4 Bft) 98,31 %
31.12.2015 07:10 -4,6 C 81 % 1026,1 hPa 0,0 l/m 16,4 km/h (3 Bft) O-NO 57 0 min 0,001 mm 0,0 UV-I 0 W/m -7,4 C -13,5 C 25,7 km/h (4 Bft) 100,00 %
31.12.2015 07:15 -4,7 C 82 % 1026,2 hPa 0,0 l/m 14,2 km/h (3 Bft) O-NO 73 0 min 0,000 mm 0,0 UV-I 0 W/m -7,3 C -12,1 C 24,1 km/h (4 Bft) 100,00 %
31.12.2015 07:20 -4,7 C 82 % 1026,2 hPa 0,0 l/m 14,0 km/h (3 Bft) NO 46 0 min 0,000 mm 0,0 UV-I 0 W/m -7,3 C -12,0 C 22,5 km/h (4 Bft) 100,00 %
31.12.2015 07:25 -4,7 C 82 % 1026,3 hPa 0,0 l/m 15,7 km/h (3 Bft) NO 44 0 min 0,000 mm 0,0 UV-I 0 W/m -7,3 C -13,1 C 22,5 km/h (4 Bft) 100,00 %
31.12.2015 07:30 -4,7 C 82 % 1026,1 hPa 0,0 l/m 15,7 km/h (3 Bft) O-NO 63 0 min 0,000 mm 0,0 UV-I 0 W/m -7,3 C -13,1 C 22,5 km/h (4 Bft) 99,11 %
31.12.2015 07:35 -4,7 C 82 % 1026,2 hPa 0,0 l/m 19,1 km/h (3 Bft) O-NO 69 0 min 0,000 mm 0,0 UV-I 0 W/m -7,3 C -15,2 C 27,4 km/h (4 Bft) 99,15 %
31.12.2015 07:40 -4,8 C 82 % 1026,3 hPa 0,0 l/m 15,9 km/h (3 Bft) NO 55 0 min 0,000 mm 0,0 UV-I 0 W/m -7,4 C -13,4 C 24,1 km/h (4 Bft) 100,00 %
31.12.2015 07:45 -4,8 C 82 % 1026,4 hPa 0,0 l/m 13,2 km/h (3 Bft) O-NO 61 0 min 0,000 mm 0,0 UV-I 0 W/m -7,4 C -11,5 C 24,1 km/h (4 Bft) 100,00 %
31.12.2015 07:50 -4,8 C 83 % 1026,4 hPa 0,0 l/m 16,0 km/h (3 Bft) O 88 0 min 0,000 mm 0,0 UV-I 0 W/m -7,2 C -13,5 C 24,1 km/h (4 Bft) 99,17 %
31.12.2015 07:55 -4,9 C 83 % 1026,4 hPa 0,0 l/m 12,9 km/h (3 Bft) NO 46 0 min 0,000 mm 0,0 UV-I 5 W/m -7,3 C -11,4 C 20,9 km/h (4 Bft) 99,08 %
31.12.2015 08:00 -4,9 C 83 % 1026,4 hPa 0,0 l/m 14,2 km/h (3 Bft) O 82 0 min 0,025 mm 0,0 UV-I 5 W/m -7,3 C -12,4 C 19,3 km/h (3 Bft) 99,13 %
31.12.2015 08:05 -4,9 C 83 % 1026,5 hPa 0,0 l/m 15,6 km/h (3 Bft) O 84 0 min 0,000 mm 0,0 UV-I 7 W/m -7,3 C -13,3 C 22,5 km/h (4 Bft) 99,17 %
31.12.2015 08:10 -4,9 C 83 % 1026,6 hPa 0,0 l/m 14,6 km/h (3 Bft) O-NO 62 0 min 0,000 mm 0,0 UV-I 9 W/m -7,3 C -12,6 C 24,1 km/h (4 Bft) 100,00 %
31.12.2015 08:15 -4,9 C 84 % 1026,8 hPa 0,0 l/m 12,2 km/h (2 Bft) O-NO 65 0 min 0,000 mm 0,0 UV-I 11 W/m -7,2 C -10,8 C 17,7 km/h (3 Bft) 99,19 %
31.12.2015 08:20 -4,9 C 84 % 1026,7 hPa 0,0 l/m 11,0 km/h (2 Bft) NO 44 0 min 0,000 mm 0,0 UV-I 12 W/m -7,2 C -9,8 C 17,7 km/h (3 Bft) 99,06 %
31.12.2015 08:25 -4,9 C 84 % 1026,9 hPa 0,0 l/m 10,7 km/h (2 Bft) O 86 0 min 0,000 mm 0,0 UV-I 14 W/m -7,2 C -9,5 C 19,3 km/h (3 Bft) 98,31 %
31.12.2015 08:30 -4,9 C 84 % 1026,9 hPa 0,0 l/m 11,4 km/h (2 Bft) O 85 0 min 0,000 mm 0,0 UV-I 18 W/m -7,2 C -10,1 C 19,3 km/h (3 Bft) 97,56 %
31.12.2015 08:35 -4,9 C 84 % 1027,0 hPa 0,0 l/m 11,0 km/h (2 Bft) O-NO 67 0 min 0,000 mm 0,0 UV-I 23 W/m -7,2 C -9,8 C 17,7 km/h (3 Bft) 95,87 %
31.12.2015 08:40 -4,8 C 84 % 1026,9 hPa 0,0 l/m 11,5 km/h (2 Bft) O 88 0 min 0,000 mm 0,0 UV-I 28 W/m -7,1 C -10,1 C 19,3 km/h (3 Bft) 97,32 %
31.12.2015 08:45 -4,7 C 83 % 1026,9 hPa 0,0 l/m 14,1 km/h (3 Bft) O-NO 58 0 min 0,000 mm 0,0 UV-I 39 W/m -7,1 C -12,0 C 20,9 km/h (4 Bft) 95,93 %
31.12.2015 08:50 -4,6 C 83 % 1026,9 hPa 0,0 l/m 14,0 km/h (3 Bft) O-NO 68 0 min 0,000 mm 0,0 UV-I 47 W/m -7,0 C -11,8 C 20,9 km/h (4 Bft) 98,11 %
31.12.2015 08:55 -4,5 C 83 % 1027,1 hPa 0,0 l/m 13,4 km/h (3 Bft) O 92 0 min 0,000 mm 0,0 UV-I 55 W/m -6,9 C -11,3 C 17,7 km/h (3 Bft) 97,56 %
31.12.2015 09:00 -4,4 C 83 % 1027,1 hPa 0,0 l/m 14,1 km/h (3 Bft) O-NO 57 0 min 0,000 mm 0,0 UV-I 63 W/m -6,8 C -11,7 C 19,3 km/h (3 Bft) 98,31 %
31.12.2015 09:05 -4,4 C 82 % 1027,2 hPa 0,0 l/m 15,0 km/h (3 Bft) O-NO 72 0 min 0,025 mm 0,0 UV-I 72 W/m -7,0 C -12,3 C 24,1 km/h (4 Bft) 100,00 %
31.12.2015 09:10 -4,3 C 82 % 1027,3 hPa 0,0 l/m 14,8 km/h (3 Bft) O 90 0 min 0,000 mm 0,0 UV-I 81 W/m -6,9 C -12,1 C 20,9 km/h (4 Bft) 100,00 %
31.12.2015 09:15 -4,2 C 82 % 1027,4 hPa 0,0 l/m 12,2 km/h (2 Bft) O-NO 71 5 min 0,000 mm 0,0 UV-I 91 W/m -6,8 C -10,0 C 19,3 km/h (3 Bft) 99,08 %
31.12.2015 09:20 -4,2 C 82 % 1027,3 hPa 0,0 l/m 13,9 km/h (3 Bft) O-NO 74 5 min 0,000 mm 0,0 UV-I 101 W/m -6,8 C -11,3 C 22,5 km/h (4 Bft) 99,15 %
31.12.2015 09:25 -4,1 C 81 % 1027,3 hPa 0,0 l/m 14,0 km/h (3 Bft) NO 53 5 min 0,000 mm 0,0 UV-I 112 W/m -6,9 C -11,3 C 20,9 km/h (4 Bft) 99,15 %
31.12.2015 09:30 -4,1 C 81 % 1027,4 hPa 0,0 l/m 15,9 km/h (3 Bft) O 79 5 min 0,000 mm 0,0 UV-I 120 W/m -6,9 C -12,5 C 22,5 km/h (4 Bft) 99,15 %
31.12.2015 09:35 -3,9 C 81 % 1027,4 hPa 0,0 l/m 12,6 km/h (3 Bft) O-NO 60 5 min 0,000 mm 0,0 UV-I 130 W/m -6,7 C -10,0 C 20,9 km/h (4 Bft) 100,00 %
31.12.2015 09:40 -3,8 C 81 % 1027,4 hPa 0,0 l/m 13,7 km/h (3 Bft) O-NO 76 5 min 0,000 mm 0,0 UV-I 140 W/m -6,6 C -10,7 C 20,9 km/h (4 Bft) 98,31 %
31.12.2015 09:45 -3,7 C 80 % 1027,4 hPa 0,0 l/m 15,5 km/h (3 Bft) O 88 5 min 0,000 mm 0,0 UV-I 149 W/m -6,6 C -11,8 C 22,5 km/h (4 Bft) 98,21 %
31.12.2015 09:50 -3,7 C 80 % 1027,4 hPa 0,0 l/m 13,4 km/h (3 Bft) NO 45 5 min 0,000 mm 0,0 UV-I 159 W/m -6,6 C -10,3 C 20,9 km/h (4 Bft) 100,00 %
31.12.2015 09:55 -3,6 C 79 % 1027,4 hPa 0,0 l/m 15,9 km/h (3 Bft) O-NO 70 5 min 0,000 mm 0,0 UV-I 170 W/m -6,7 C -11,9 C 22,5 km/h (4 Bft) 100,00 %
31.12.2015 10:00 -3,5 C 79 % 1027,4 hPa 0,0 l/m 15,4 km/h (3 Bft) O-NO 78 5 min 0,051 mm 0,0 UV-I 180 W/m -6,6 C -11,5 C 22,5 km/h (4 Bft) 99,08 %
31.12.2015 10:05 -3,4 C 78 % 1027,4 hPa 0,0 l/m 13,9 km/h (3 Bft) O-NO 71 5 min 0,000 mm 0,0 UV-I 188 W/m -6,7 C -10,3 C 19,3 km/h (3 Bft) 97,56 %
31.12.2015 10:10 -3,3 C 78 % 1027,4 hPa 0,0 l/m 12,1 km/h (2 Bft) O-NO 67 5 min 0,000 mm 0,0 UV-I 197 W/m -6,6 C -8,9 C 17,7 km/h (3 Bft) 96,61 %
31.12.2015 10:15 -3,2 C 78 % 1027,5 hPa 0,0 l/m 10,3 km/h (2 Bft) O 81 5 min 0,000 mm 0,0 UV-I 205 W/m -6,5 C -7,3 C 16,1 km/h (3 Bft) 97,30 %
31.12.2015 10:20 -3,1 C 78 % 1027,6 hPa 0,0 l/m 11,0 km/h (2 Bft) NO 50 5 min 0,000 mm 0,0 UV-I 214 W/m -6,4 C -7,8 C 17,7 km/h (3 Bft) 98,35 %
31.12.2015 10:25 -3,0 C 78 % 1027,5 hPa 0,0 l/m 11,5 km/h (2 Bft) O-NO 78 5 min 0,000 mm 0,0 UV-I 221 W/m -6,3 C -8,1 C 17,7 km/h (3 Bft) 99,17 %
31.12.2015 10:30 -2,9 C 77 % 1027,4 hPa 0,0 l/m 12,9 km/h (3 Bft) O-NO 64 5 min 0,000 mm 0,0 UV-I 228 W/m -6,4 C -9,0 C 19,3 km/h (3 Bft) 97,73 %
31.12.2015 10:35 -2,8 C 76 % 1027,4 hPa 0,0 l/m 11,1 km/h (2 Bft) O-NO 71 5 min 0,000 mm 0,1 UV-I 234 W/m -6,4 C -7,5 C 16,1 km/h (3 Bft) 100,00 %
31.12.2015 10:40 -2,7 C 77 % 1027,4 hPa 0,0 l/m 11,7 km/h (2 Bft) O-NO 59 5 min 0,000 mm 0,5 UV-I 243 W/m -6,2 C -7,9 C 20,9 km/h (4 Bft) 99,15 %
31.12.2015 10:45 -2,7 C 76 % 1027,5 hPa 0,0 l/m 13,3 km/h (3 Bft) O-NO 72 5 min 0,000 mm 0,5 UV-I 249 W/m -6,3 C -9,1 C 19,3 km/h (3 Bft) 98,37 %
31.12.2015 10:50 -2,6 C 76 % 1027,6 hPa 0,0 l/m 9,7 km/h (2 Bft) O-NO 57 5 min 0,000 mm 0,5 UV-I 255 W/m -6,2 C -6,0 C 16,1 km/h (3 Bft) 100,00 %
31.12.2015 10:55 -2,4 C 76 % 1027,6 hPa 0,0 l/m 8,5 km/h (2 Bft) NO 42 5 min 0,000 mm 0,5 UV-I 261 W/m -6,0 C -4,7 C 14,5 km/h (3 Bft) 98,21 %
31.12.2015 11:00 -2,4 C 76 % 1027,6 hPa 0,0 l/m 12,4 km/h (3 Bft) O-NO 67 5 min 0,076 mm 0,5 UV-I 266 W/m -6,0 C -8,1 C 19,3 km/h (3 Bft) 98,41 %
31.12.2015 11:05 -2,4 C 76 % 1027,6 hPa 0,0 l/m 10,7 km/h (2 Bft) O-NO 78 5 min 0,000 mm 0,5 UV-I 271 W/m -6,0 C -6,7 C 17,7 km/h (3 Bft) 100,00 %
31.12.2015 11:10 -2,3 C 75 % 1027,8 hPa 0,0 l/m 8,3 km/h (2 Bft) O-NO 75 5 min 0,000 mm 0,6 UV-I 275 W/m -6,1 C -4,4 C 14,5 km/h (3 Bft) 99,15 %
31.12.2015 11:15 -2,2 C 76 % 1027,6 hPa 0,0 l/m 4,9 km/h (1 Bft) N-NO 32 5 min 0,000 mm 0,6 UV-I 278 W/m -5,8 C -2,2 C 8,0 km/h (2 Bft) 99,15 %
31.12.2015 11:20 -2,1 C 76 % 1027,6 hPa 0,0 l/m 7,5 km/h (2 Bft) NO 55 5 min 0,000 mm 0,6 UV-I 282 W/m -5,7 C -3,3 C 14,5 km/h (3 Bft) 97,52 %
31.12.2015 11:25 -2,1 C 76 % 1027,6 hPa 0,0 l/m 9,7 km/h (2 Bft) O-NO 62 5 min 0,000 mm 0,6 UV-I 284 W/m -5,7 C -5,5 C 14,5 km/h (3 Bft) 96,15 %
31.12.2015 11:35 -2,0 C 74 % 1027,6 hPa 0,0 l/m 10,4 km/h (2 Bft) NO 42 10 min 0,000 mm 0,6 UV-I 291 W/m -6,0 C -6,0 C 16,1 km/h (3 Bft) 96,87 %
31.12.2015 11:40 -1,8 C 75 % 1027,7 hPa 0,0 l/m 9,8 km/h (2 Bft) NO 51 5 min 0,000 mm 0,6 UV-I 293 W/m -5,6 C -5,3 C 17,7 km/h (3 Bft) 94,87 %
31.12.2015 11:45 -1,8 C 74 % 1027,8 hPa 0,0 l/m 8,4 km/h (2 Bft) O-NO 72 5 min 0,000 mm 0,6 UV-I 294 W/m -5,8 C -3,9 C 14,5 km/h (3 Bft) 99,17 %
31.12.2015 11:50 -1,8 C 74 % 1027,8 hPa 0,0 l/m 7,8 km/h (2 Bft) O-NO 78 5 min 0,000 mm 0,6 UV-I 294 W/m -5,8 C -3,3 C 14,5 km/h (3 Bft) 98,33 %
31.12.2015 11:55 -1,8 C 73 % 1027,8 hPa 0,0 l/m 6,8 km/h (2 Bft) O 90 5 min 0,000 mm 0,6 UV-I 295 W/m -6,0 C -2,2 C 11,3 km/h (2 Bft) 96,61 %
31.12.2015 12:00 -1,8 C 73 % 1027,9 hPa 0,0 l/m 4,7 km/h (1 Bft) O-SO 109 5 min 0,000 mm 0,6 UV-I 297 W/m -6,0 C -1,8 C 9,7 km/h (2 Bft) 100,00 %
31.12.2015 12:05 -1,5 C 74 % 1027,8 hPa 0,0 l/m 5,8 km/h (2 Bft) NO 44 5 min 0,102 mm 0,6 UV-I 299 W/m -5,5 C -1,5 C 11,3 km/h (2 Bft) 99,19 %
31.12.2015 12:10 -1,6 C 74 % 1027,7 hPa 0,0 l/m 6,9 km/h (2 Bft) NO 40 5 min 0,000 mm 0,6 UV-I 297 W/m -5,6 C -2,1 C 14,5 km/h (3 Bft) 95,97 %
31.12.2015 12:15 -1,5 C 74 % 1027,6 hPa 0,0 l/m 6,5 km/h (2 Bft) NO 42 5 min 0,000 mm 0,6 UV-I 297 W/m -5,5 C -1,6 C 12,9 km/h (3 Bft) 99,12 %
31.12.2015 12:20 -1,4 C 73 % 1027,6 hPa 0,0 l/m 9,8 km/h (2 Bft) O-NO 67 5 min 0,000 mm 0,6 UV-I 297 W/m -5,6 C -4,8 C 16,1 km/h (3 Bft) 99,08 %
31.12.2015 12:25 -1,3 C 73 % 1027,5 hPa 0,0 l/m 9,3 km/h (2 Bft) O-NO 67 5 min 0,000 mm 0,6 UV-I 296 W/m -5,5 C -4,3 C 16,1 km/h (3 Bft) 99,19 %
31.12.2015 12:30 -1,2 C 73 % 1027,6 hPa 0,0 l/m 6,9 km/h (2 Bft) O-NO 72 5 min 0,000 mm 0,6 UV-I 295 W/m -5,4 C -1,7 C 12,9 km/h (3 Bft) 97,37 %
31.12.2015 12:35 -1,2 C 72 % 1027,6 hPa 0,0 l/m 6,4 km/h (2 Bft) O-NO 69 5 min 0,000 mm 0,6 UV-I 294 W/m -5,6 C -1,2 C 12,9 km/h (3 Bft) 95,97 %
31.12.2015 12:40 -1,2 C 72 % 1027,7 hPa 0,0 l/m 7,5 km/h (2 Bft) O 79 5 min 0,000 mm 0,6 UV-I 292 W/m -5,6 C -2,4 C 12,9 km/h (3 Bft) 96,52 %
31.12.2015 12:45 -1,2 C 73 % 1027,7 hPa 0,0 l/m 4,3 km/h (1 Bft) O-NO 71 5 min 0,000 mm 0,6 UV-I 290 W/m -5,4 C -1,2 C 11,3 km/h (2 Bft) 98,20 %
31.12.2015 12:50 -1,2 C 73 % 1027,8 hPa 0,0 l/m 4,6 km/h (1 Bft) NO 53 5 min 0,000 mm 0,6 UV-I 287 W/m -5,4 C -1,2 C 11,3 km/h (2 Bft) 97,52 %
31.12.2015 12:55 -1,2 C 73 % 1027,8 hPa 0,0 l/m 4,4 km/h (1 Bft) NO 49 5 min 0,000 mm 0,6 UV-I 284 W/m -5,4 C -1,2 C 8,0 km/h (2 Bft) 98,17 %
31.12.2015 13:00 -1,1 C 74 % 1027,7 hPa 0,0 l/m 1,1 km/h (1 Bft) NO 49 5 min 0,102 mm 0,6 UV-I 280 W/m -5,1 C -1,1 C 4,8 km/h (1 Bft) 99,17 %
31.12.2015 13:05 -0,9 C 73 % 1027,7 hPa 0,0 l/m 1,0 km/h (0 Bft) N 5 5 min 0,000 mm 0,6 UV-I 276 W/m -5,1 C -0,9 C 3,2 km/h (1 Bft) 100,00 %
31.12.2015 13:10 -1,1 C 72 % 1027,7 hPa 0,0 l/m 3,3 km/h (1 Bft) N-NO 27 5 min 0,000 mm 0,5 UV-I 272 W/m -5,5 C -1,1 C 6,4 km/h (2 Bft) 100,00 %
31.12.2015 13:15 -0,9 C 73 % 1027,7 hPa 0,0 l/m 4,4 km/h (1 Bft) NO 37 5 min 0,000 mm 0,5 UV-I 268 W/m -5,1 C -0,9 C 6,4 km/h (2 Bft) 100,00 %
31.12.2015 13:20 -0,8 C 71 % 1027,7 hPa 0,0 l/m 5,3 km/h (1 Bft) O-NO 63 5 min 0,000 mm 0,5 UV-I 263 W/m -5,4 C -0,8 C 8,0 km/h (2 Bft) 99,19 %
31.12.2015 13:25 -0,7 C 72 % 1027,6 hPa 0,0 l/m 4,7 km/h (1 Bft) N-NO 32 5 min 0,000 mm 0,5 UV-I 258 W/m -5,1 C -0,7 C 8,0 km/h (2 Bft) 100,00 %
31.12.2015 13:30 -0,7 C 71 % 1027,6 hPa 0,0 l/m 3,7 km/h (1 Bft) O-SO 109 5 min 0,000 mm 0,5 UV-I 251 W/m -5,3 C -0,7 C 8,0 km/h (2 Bft) 99,06 %
31.12.2015 13:35 -0,8 C 71 % 1027,7 hPa 0,0 l/m 3,8 km/h (1 Bft) O-NO 76 5 min 0,000 mm 0,5 UV-I 246 W/m -5,4 C -0,8 C 8,0 km/h (2 Bft) 100,00 %
31.12.2015 13:40 -0,7 C 73 % 1027,7 hPa 0,0 l/m 3,4 km/h (1 Bft) O-NO 59 5 min 0,000 mm 0,1 UV-I 239 W/m -4,9 C -0,7 C 8,0 km/h (2 Bft) 96,52 %
31.12.2015 13:45 -0,4 C 72 % 1027,8 hPa 0,0 l/m 5,1 km/h (1 Bft) O-NO 76 5 min 0,000 mm 0,0 UV-I 233 W/m -4,8 C -0,4 C 8,0 km/h (2 Bft) 95,61 %
31.12.2015 13:50 -0,6 C 71 % 1027,8 hPa 0,0 l/m 3,7 km/h (1 Bft) O-NO 58 5 min 0,000 mm 0,0 UV-I 225 W/m -5,2 C -0,6 C 8,0 km/h (2 Bft) 97,52 %
31.12.2015 13:55 -0,6 C 71 % 1027,7 hPa 0,0 l/m 3,8 km/h (1 Bft) O-NO 59 5 min 0,000 mm 0,0 UV-I 217 W/m -5,2 C -0,6 C 6,4 km/h (2 Bft) 98,21 %
31.12.2015 14:00 -0,4 C 73 % 1027,7 hPa 0,0 l/m 2,6 km/h (1 Bft) NO 34 5 min 0,076 mm 0,0 UV-I 210 W/m -4,6 C -0,4 C 6,4 km/h (2 Bft) 98,25 %
31.12.2015 14:05 -0,4 C 72 % 1027,8 hPa 0,0 l/m 2,9 km/h (1 Bft) NO 52 5 min 0,000 mm 0,0 UV-I 203 W/m -4,8 C -0,4 C 4,8 km/h (1 Bft) 98,21 %
31.12.2015 14:10 -0,5 C 73 % 1027,7 hPa 0,0 l/m 2,6 km/h (1 Bft) NO 46 5 min 0,000 mm 0,0 UV-I 195 W/m -4,7 C -0,5 C 4,8 km/h (1 Bft) 99,21 %
31.12.2015 14:15 -0,4 C 72 % 1027,7 hPa 0,0 l/m 4,4 km/h (1 Bft) NO 40 5 min 0,000 mm 0,0 UV-I 187 W/m -4,8 C -0,4 C 8,0 km/h (2 Bft) 98,21 %
31.12.2015 14:20 -0,4 C 73 % 1027,7 hPa 0,0 l/m 2,7 km/h (1 Bft) N-NO 16 5 min 0,000 mm 0,0 UV-I 176 W/m -4,6 C -0,4 C 6,4 km/h (2 Bft) 100,00 %
31.12.2015 14:25 -0,3 C 73 % 1027,8 hPa 0,0 l/m 2,3 km/h (1 Bft) N-NO 18 5 min 0,000 mm 0,0 UV-I 161 W/m -4,5 C -0,3 C 6,4 km/h (2 Bft) 100,00 %
31.12.2015 14:30 -0,4 C 73 % 1027,7 hPa 0,0 l/m 4,4 km/h (1 Bft) NO 39 5 min 0,000 mm 0,0 UV-I 121 W/m -4,6 C -0,4 C 8,0 km/h (2 Bft) 98,17 %
31.12.2015 14:35 -0,6 C 73 % 1027,8 hPa 0,0 l/m 3,7 km/h (1 Bft) NO 43 0 min 0,000 mm 0,0 UV-I 97 W/m -4,8 C -0,6 C 8,0 km/h (2 Bft) 99,25 %
31.12.2015 14:40 -0,6 C 73 % 1027,7 hPa 0,0 l/m 3,7 km/h (1 Bft) NO 41 0 min 0,000 mm 0,0 UV-I 33 W/m -4,8 C -0,6 C 6,4 km/h (2 Bft) 100,00 %
31.12.2015 14:45 -0,8 C 75 % 1027,8 hPa 0,0 l/m 3,0 km/h (1 Bft) NO 50 0 min 0,000 mm 0,0 UV-I 30 W/m -4,7 C -0,8 C 4,8 km/h (1 Bft) 100,00 %
31.12.2015 14:50 -0,9 C 77 % 1027,9 hPa 0,0 l/m 2,6 km/h (1 Bft) NO 38 0 min 0,000 mm 0,0 UV-I 38 W/m -4,4 C -0,9 C 4,8 km/h (1 Bft) 100,00 %
31.12.2015 14:55 -0,9 C 78 % 1027,8 hPa 0,0 l/m 2,4 km/h (1 Bft) NO 36 0 min 0,000 mm 0,0 UV-I 57 W/m -4,2 C -0,9 C 4,8 km/h (1 Bft) 97,62 %
31.12.2015 15:00 -0,9 C 78 % 1027,9 hPa 0,0 l/m 3,5 km/h (1 Bft) N-NO 31 0 min 0,051 mm 0,0 UV-I 56 W/m -4,2 C -0,9 C 4,8 km/h (1 Bft) 97,46 %
31.12.2015 15:05 -0,8 C 76 % 1027,9 hPa 0,0 l/m 3,1 km/h (1 Bft) NO 35 5 min 0,000 mm 0,0 UV-I 84 W/m -4,5 C -0,8 C 6,4 km/h (2 Bft) 97,50 %
31.12.2015 15:10 -0,8 C 76 % 1028,0 hPa 0,0 l/m 1,8 km/h (1 Bft) NO 35 0 min 0,000 mm 0,0 UV-I 69 W/m -4,5 C -0,8 C 3,2 km/h (1 Bft) 95,76 %
31.12.2015 15:15 -0,8 C 77 % 1028,1 hPa 0,0 l/m 2,3 km/h (1 Bft) NO 35 5 min 0,000 mm 0,0 UV-I 75 W/m -4,3 C -0,8 C 3,2 km/h (1 Bft) 96,36 %
31.12.2015 15:20 -0,8 C 75 % 1028,0 hPa 0,0 l/m 2,7 km/h (1 Bft) NO 54 0 min 0,000 mm 0,0 UV-I 64 W/m -4,7 C -0,8 C 4,8 km/h (1 Bft) 97,60 %
31.12.2015 15:25 -0,8 C 75 % 1028,0 hPa 0,0 l/m 3,6 km/h (1 Bft) NO 46 5 min 0,000 mm 0,0 UV-I 61 W/m -4,7 C -0,8 C 6,4 km/h (2 Bft) 98,39 %
31.12.2015 15:30 -0,8 C 74 % 1028,1 hPa 0,0 l/m 3,5 km/h (1 Bft) NO 51 0 min 0,000 mm 0,0 UV-I 44 W/m -4,8 C -0,8 C 6,4 km/h (2 Bft) 98,25 %
31.12.2015 15:35 -0,8 C 74 % 1028,1 hPa 0,0 l/m 3,7 km/h (1 Bft) O-NO 57 0 min 0,000 mm 0,0 UV-I 33 W/m -4,8 C -0,8 C 6,4 km/h (2 Bft) 99,13 %
31.12.2015 15:40 -0,9 C 76 % 1028,0 hPa 0,0 l/m 4,1 km/h (1 Bft) NO 55 0 min 0,000 mm 0,0 UV-I 27 W/m -4,6 C -0,9 C 6,4 km/h (2 Bft) 100,00 %
31.12.2015 15:45 -1,0 C 77 % 1028,1 hPa 0,0 l/m 3,0 km/h (1 Bft) NO 55 0 min 0,000 mm 0,0 UV-I 23 W/m -4,5 C -1,0 C 6,4 km/h (2 Bft) 100,00 %
31.12.2015 15:50 -1,1 C 77 % 1028,2 hPa 0,0 l/m 2,0 km/h (1 Bft) NO 55 0 min 0,000 mm 0,0 UV-I 19 W/m -4,6 C -1,1 C 3,2 km/h (1 Bft) 98,21 %
31.12.2015 15:55 -1,2 C 78 % 1028,2 hPa 0,0 l/m 2,1 km/h (1 Bft) NO 55 0 min 0,000 mm 0,0 UV-I 15 W/m -4,5 C -1,2 C 3,2 km/h (1 Bft) 100,00 %
31.12.2015 16:00 -1,2 C 78 % 1028,3 hPa 0,0 l/m 1,5 km/h (1 Bft) NO 55 0 min 0,025 mm 0,0 UV-I 12 W/m -4,5 C -1,2 C 3,2 km/h (1 Bft) 98,41 %
31.12.2015 16:05 -1,3 C 78 % 1028,3 hPa 0,0 l/m 2,2 km/h (1 Bft) NO 55 0 min 0,000 mm 0,0 UV-I 9 W/m -4,6 C -1,3 C 3,2 km/h (1 Bft) 100,00 %
31.12.2015 16:10 -1,4 C 78 % 1028,3 hPa 0,0 l/m 3,0 km/h (1 Bft) NO 55 0 min 0,000 mm 0,0 UV-I 6 W/m -4,7 C -1,4 C 4,8 km/h (1 Bft) 100,00 %
31.12.2015 16:15 -1,3 C 77 % 1028,2 hPa 0,0 l/m 2,2 km/h (1 Bft) NO 55 0 min 0,000 mm 0,0 UV-I 3 W/m -4,8 C -1,3 C 4,8 km/h (1 Bft) 100,00 %
31.12.2015 16:20 -1,3 C 79 % 1028,4 hPa 0,0 l/m 2,7 km/h (1 Bft) NO 55 0 min 0,000 mm 0,0 UV-I 0 W/m -4,5 C -1,3 C 4,8 km/h (1 Bft) 100,00 %
31.12.2015 16:25 -1,4 C 80 % 1028,4 hPa 0,0 l/m 1,5 km/h (1 Bft) NO 55 0 min 0,000 mm 0,0 UV-I 0 W/m -4,4 C -1,4 C 3,2 km/h (1 Bft) 99,15 %
31.12.2015 16:30 -1,4 C 81 % 1028,4 hPa 0,0 l/m 0,8 km/h (0 Bft) NO 55 0 min 0,000 mm 0,0 UV-I 0 W/m -4,2 C -1,4 C 1,6 km/h (1 Bft) 99,19 %
31.12.2015 16:35 -1,4 C 81 % 1028,5 hPa 0,0 l/m 1,5 km/h (1 Bft) NO 55 0 min 0,000 mm 0,0 UV-I 0 W/m -4,2 C -1,4 C 3,2 km/h (1 Bft) 98,21 %
31.12.2015 16:40 -1,4 C 80 % 1028,4 hPa 0,0 l/m 2,2 km/h (1 Bft) NO 55 0 min 0,000 mm 0,0 UV-I 0 W/m -4,4 C -1,4 C 3,2 km/h (1 Bft) 98,33 %
31.12.2015 16:45 -1,4 C 81 % 1028,4 hPa 0,0 l/m 2,0 km/h (1 Bft) NO 55 0 min 0,000 mm 0,0 UV-I 0 W/m -4,2 C -1,4 C 3,2 km/h (1 Bft) 99,13 %
31.12.2015 16:50 -1,4 C 80 % 1028,5 hPa 0,0 l/m 2,5 km/h (1 Bft) NO 55 0 min 0,000 mm 0,0 UV-I 0 W/m -4,4 C -1,4 C 4,8 km/h (1 Bft) 100,00 %
31.12.2015 16:55 -1,4 C 80 % 1028,5 hPa 0,0 l/m 3,1 km/h (1 Bft) O-NO 65 0 min 0,000 mm 0,0 UV-I 0 W/m -4,4 C -1,4 C 4,8 km/h (1 Bft) 95,73 %
31.12.2015 17:00 -1,4 C 81 % 1028,5 hPa 0,0 l/m 3,2 km/h (1 Bft) O-NO 60 0 min 0,000 mm 0,0 UV-I 0 W/m -4,2 C -1,4 C 4,8 km/h (1 Bft) 96,77 %
31.12.2015 17:05 -1,3 C 81 % 1028,5 hPa 0,0 l/m 4,4 km/h (1 Bft) O-NO 59 0 min 0,000 mm 0,0 UV-I 0 W/m -4,1 C -1,3 C 6,4 km/h (2 Bft) 100,00 %
31.12.2015 17:15 -1,2 C 81 % 1028,5 hPa 0,0 l/m 2,9 km/h (1 Bft) N-NO 30 0 min 0,000 mm 0,0 UV-I 0 W/m -4,0 C -1,2 C 6,4 km/h (2 Bft) 97,24 %
31.12.2015 17:20 -1,2 C 78 % 1028,6 hPa 0,0 l/m 3,9 km/h (1 Bft) O-NO 71 0 min 0,000 mm 0,0 UV-I 0 W/m -4,5 C -1,2 C 6,4 km/h (2 Bft) 96,40 %
31.12.2015 17:25 -1,2 C 79 % 1028,5 hPa 0,0 l/m 3,8 km/h (1 Bft) NO 49 0 min 0,000 mm 0,0 UV-I 0 W/m -4,4 C -1,2 C 6,4 km/h (2 Bft) 97,39 %
31.12.2015 17:30 -1,2 C 79 % 1028,4 hPa 0,0 l/m 5,4 km/h (1 Bft) O-NO 65 0 min 0,000 mm 0,0 UV-I 0 W/m -4,4 C -1,2 C 11,3 km/h (2 Bft) 98,37 %
31.12.2015 17:35 -1,2 C 80 % 1028,4 hPa 0,0 l/m 5,0 km/h (1 Bft) O-NO 57 0 min 0,000 mm 0,0 UV-I 0 W/m -4,2 C -1,2 C 8,0 km/h (2 Bft) 99,11 %
31.12.2015 17:40 -1,2 C 80 % 1028,5 hPa 0,0 l/m 4,4 km/h (1 Bft) NO 55 0 min 0,000 mm 0,0 UV-I 0 W/m -4,2 C -1,2 C 8,0 km/h (2 Bft) 99,03 %
31.12.2015 17:45 -1,2 C 79 % 1028,4 hPa 0,0 l/m 5,4 km/h (1 Bft) O-NO 67 0 min 0,000 mm 0,0 UV-I 0 W/m -4,4 C -1,2 C 8,0 km/h (2 Bft) 100,00 %
31.12.2015 17:50 -1,2 C 79 % 1028,4 hPa 0,0 l/m 5,2 km/h (1 Bft) NO 51 0 min 0,000 mm 0,0 UV-I 0 W/m -4,4 C -1,2 C 9,7 km/h (2 Bft) 98,31 %
31.12.2015 17:55 -1,1 C 79 % 1028,5 hPa 0,0 l/m 3,3 km/h (1 Bft) NO 55 0 min 0,000 mm 0,0 UV-I 0 W/m -4,3 C -1,1 C 4,8 km/h (1 Bft) 99,08 %
31.12.2015 18:00 -1,1 C 79 % 1028,5 hPa 0,0 l/m 2,9 km/h (1 Bft) NO 55 0 min 0,000 mm 0,0 UV-I 0 W/m -4,3 C -1,1 C 4,8 km/h (1 Bft) 99,12 %
31.12.2015 18:05 -1,1 C 78 % 1028,5 hPa 0,0 l/m 3,1 km/h (1 Bft) NO 55 0 min 0,000 mm 0,0 UV-I 0 W/m -4,4 C -1,1 C 4,8 km/h (1 Bft) 100,00 %
31.12.2015 18:10 -1,1 C 78 % 1028,5 hPa 0,0 l/m 2,9 km/h (1 Bft) NO 53 0 min 0,000 mm 0,0 UV-I 0 W/m -4,4 C -1,1 C 4,8 km/h (1 Bft) 99,19 %
31.12.2015 18:15 -1,1 C 78 % 1028,6 hPa 0,0 l/m 2,1 km/h (1 Bft) NO 53 0 min 0,000 mm 0,0 UV-I 0 W/m -4,4 C -1,1 C 4,8 km/h (1 Bft) 99,09 %
31.12.2015 18:20 -1,1 C 79 % 1028,6 hPa 0,0 l/m 2,2 km/h (1 Bft) NO 53 0 min 0,000 mm 0,0 UV-I 0 W/m -4,3 C -1,1 C 4,8 km/h (1 Bft) 99,17 %
31.12.2015 18:25 -1,1 C 78 % 1028,6 hPa 0,0 l/m 2,6 km/h (1 Bft) NO 53 0 min 0,000 mm 0,0 UV-I 0 W/m -4,4 C -1,1 C 4,8 km/h (1 Bft) 100,00 %
31.12.2015 18:30 -1,1 C 78 % 1028,6 hPa 0,0 l/m 2,5 km/h (1 Bft) NO 54 0 min 0,000 mm 0,0 UV-I 0 W/m -4,4 C -1,1 C 4,8 km/h (1 Bft) 98,21 %
31.12.2015 18:35 -1,1 C 78 % 1028,6 hPa 0,0 l/m 1,3 km/h (1 Bft) NO 54 0 min 0,000 mm 0,0 UV-I 0 W/m -4,4 C -1,1 C 4,8 km/h (1 Bft) 100,00 %
31.12.2015 18:40 -1,0 C 79 % 1028,6 hPa 0,0 l/m 0,3 km/h (0 Bft) NO 54 0 min 0,000 mm 0,0 UV-I 0 W/m -4,2 C -1,0 C 1,6 km/h (1 Bft) 97,44 %
31.12.2015 18:45 -1,0 C 79 % 1028,6 hPa 0,0 l/m 0,0 km/h (0 Bft) NO 54 0 min 0,000 mm 0,0 UV-I 0 W/m -4,2 C -1,0 C 0,0 km/h (0 Bft) 99,19 %
31.12.2015 18:50 -1,1 C 78 % 1028,6 hPa 0,0 l/m 0,0 km/h (0 Bft) NO 54 0 min 0,000 mm 0,0 UV-I 0 W/m -4,4 C -1,1 C 0,0 km/h (0 Bft) 99,12 %
31.12.2015 18:55 -1,0 C 78 % 1028,5 hPa 0,0 l/m 0,1 km/h (0 Bft) NO 54 0 min 0,000 mm 0,0 UV-I 0 W/m -4,3 C -1,0 C 1,6 km/h (1 Bft) 98,21 %
31.12.2015 19:00 -1,0 C 79 % 1028,6 hPa 0,0 l/m 0,4 km/h (0 Bft) NO 54 0 min 0,000 mm 0,0 UV-I 0 W/m -4,2 C -1,0 C 1,6 km/h (1 Bft) 97,52 %
31.12.2015 19:05 -0,9 C 79 % 1028,5 hPa 0,0 l/m 1,0 km/h (0 Bft) NO 54 0 min 0,000 mm 0,0 UV-I 0 W/m -4,1 C -0,9 C 3,2 km/h (1 Bft) 98,21 %
31.12.2015 19:10 -1,0 C 78 % 1028,5 hPa 0,0 l/m 1,9 km/h (1 Bft) NO 54 0 min 0,000 mm 0,0 UV-I 0 W/m -4,3 C -1,0 C 3,2 km/h (1 Bft) 96,85 %
31.12.2015 19:15 -0,9 C 78 % 1028,5 hPa 0,0 l/m 0,9 km/h (0 Bft) NO 54 0 min 0,000 mm 0,0 UV-I 0 W/m -4,2 C -0,9 C 3,2 km/h (1 Bft) 97,44 %
31.12.2015 19:20 -0,9 C 78 % 1028,5 hPa 0,0 l/m 0,4 km/h (0 Bft) NO 54 0 min 0,000 mm 0,0 UV-I 0 W/m -4,2 C -0,9 C 1,6 km/h (1 Bft) 96,33 %
31.12.2015 19:25 -0,9 C 79 % 1028,4 hPa 0,0 l/m 1,1 km/h (1 Bft) NO 54 0 min 0,000 mm 0,0 UV-I 0 W/m -4,1 C -0,9 C 3,2 km/h (1 Bft) 96,69 %
31.12.2015 19:30 -0,9 C 79 % 1028,4 hPa 0,0 l/m 2,0 km/h (1 Bft) NO 54 0 min 0,000 mm 0,0 UV-I 0 W/m -4,1 C -0,9 C 3,2 km/h (1 Bft) 97,44 %
31.12.2015 19:35 -0,9 C 79 % 1028,4 hPa 0,0 l/m 2,5 km/h (1 Bft) NO 54 0 min 0,000 mm 0,0 UV-I 0 W/m -4,1 C -0,9 C 4,8 km/h (1 Bft) 99,08 %
31.12.2015 19:40 -0,9 C 79 % 1028,4 hPa 0,0 l/m 2,0 km/h (1 Bft) NO 54 0 min 0,000 mm 0,0 UV-I 0 W/m -4,1 C -0,9 C 3,2 km/h (1 Bft) 98,46 %
31.12.2015 19:45 -0,9 C 79 % 1028,4 hPa 0,0 l/m 0,5 km/h (0 Bft) NO 54 0 min 0,000 mm 0,0 UV-I 0 W/m -4,1 C -0,9 C 3,2 km/h (1 Bft) 99,10 %
31.12.2015 19:50 -0,9 C 78 % 1028,4 hPa 0,0 l/m 0,1 km/h (0 Bft) NO 54 0 min 0,000 mm 0,0 UV-I 0 W/m -4,2 C -0,9 C 1,6 km/h (1 Bft) 100,00 %
31.12.2015 19:55 -0,9 C 79 % 1028,4 hPa 0,0 l/m 0,7 km/h (0 Bft) NO 54 0 min 0,000 mm 0,0 UV-I 0 W/m -4,1 C -0,9 C 3,2 km/h (1 Bft) 99,11 %
31.12.2015 20:00 -0,9 C 80 % 1028,4 hPa 0,0 l/m 0,5 km/h (0 Bft) NO 54 0 min 0,000 mm 0,0 UV-I 0 W/m -3,9 C -0,9 C 3,2 km/h (1 Bft) 98,29 %
31.12.2015 20:05 -0,9 C 80 % 1028,4 hPa 0,0 l/m 0,1 km/h (0 Bft) NO 54 0 min 0,000 mm 0,0 UV-I 0 W/m -3,9 C -0,9 C 1,6 km/h (1 Bft) 98,39 %
31.12.2015 20:10 -0,9 C 81 % 1028,3 hPa 0,0 l/m 0,0 km/h (0 Bft) NO 54 0 min 0,000 mm 0,0 UV-I 0 W/m -3,7 C -0,9 C 0,0 km/h (0 Bft) 96,67 %
31.12.2015 20:15 -0,9 C 81 % 1028,4 hPa 0,0 l/m 0,0 km/h (0 Bft) NO 54 0 min 0,000 mm 0,0 UV-I 0 W/m -3,7 C -0,9 C 0,0 km/h (0 Bft) 100,00 %
31.12.2015 20:20 -0,9 C 81 % 1028,4 hPa 0,0 l/m 0,0 km/h (0 Bft) NO 54 0 min 0,000 mm 0,0 UV-I 0 W/m -3,7 C -0,9 C 0,0 km/h (0 Bft) 99,21 %
31.12.2015 20:25 -1,0 C 80 % 1028,3 hPa 0,0 l/m 0,0 km/h (0 Bft) NO 54 0 min 0,000 mm 0,0 UV-I 0 W/m -4,0 C -1,0 C 1,6 km/h (1 Bft) 97,30 %
31.12.2015 20:30 -1,0 C 82 % 1028,3 hPa 0,0 l/m 1,5 km/h (1 Bft) NO 54 0 min 0,000 mm 0,0 UV-I 0 W/m -3,7 C -1,0 C 3,2 km/h (1 Bft) 100,00 %
31.12.2015 20:35 -1,0 C 83 % 1028,3 hPa 0,0 l/m 1,2 km/h (1 Bft) NO 54 0 min 0,000 mm 0,0 UV-I 0 W/m -3,5 C -1,0 C 3,2 km/h (1 Bft) 100,00 %
31.12.2015 20:40 -1,1 C 83 % 1028,2 hPa 0,0 l/m 0,7 km/h (0 Bft) NO 54 0 min 0,000 mm 0,0 UV-I 0 W/m -3,6 C -1,1 C 1,6 km/h (1 Bft) 98,33 %
31.12.2015 20:45 -1,1 C 83 % 1028,2 hPa 0,0 l/m 0,0 km/h (0 Bft) NO 54 0 min 0,000 mm 0,0 UV-I 0 W/m -3,6 C -1,1 C 1,6 km/h (1 Bft) 100,00 %
31.12.2015 20:50 -1,1 C 86 % 1028,2 hPa 0,0 l/m 0,0 km/h (0 Bft) NO 54 0 min 0,000 mm 0,0 UV-I 0 W/m -3,1 C -1,1 C 0,0 km/h (0 Bft) 99,15 %
31.12.2015 20:55 -1,2 C 86 % 1028,1 hPa 0,0 l/m 0,0 km/h (0 Bft) NO 54 0 min 0,000 mm 0,0 UV-I 0 W/m -3,2 C -1,2 C 0,0 km/h (0 Bft) 100,00 %
31.12.2015 21:00 -1,2 C 85 % 1028,1 hPa 0,0 l/m 0,2 km/h (0 Bft) NO 54 0 min 0,000 mm 0,0 UV-I 0 W/m -3,4 C -1,2 C 1,6 km/h (1 Bft) 99,15 %
31.12.2015 21:05 -1,2 C 85 % 1028,1 hPa 0,0 l/m 0,0 km/h (0 Bft) NO 54 0 min 0,000 mm 0,0 UV-I 0 W/m -3,4 C -1,2 C 1,6 km/h (1 Bft) 98,20 %
31.12.2015 21:10 -1,1 C 86 % 1028,0 hPa 0,0 l/m 1,5 km/h (1 Bft) NO 54 0 min 0,000 mm 0,0 UV-I 0 W/m -3,1 C -1,1 C 3,2 km/h (1 Bft) 96,61 %
31.12.2015 21:15 -1,2 C 85 % 1027,9 hPa 0,0 l/m 1,5 km/h (1 Bft) NO 54 0 min 0,000 mm 0,0 UV-I 0 W/m -3,4 C -1,2 C 3,2 km/h (1 Bft) 96,77 %
31.12.2015 21:20 -1,2 C 86 % 1027,9 hPa 0,0 l/m 0,0 km/h (0 Bft) NO 54 0 min 0,000 mm 0,0 UV-I 0 W/m -3,2 C -1,2 C 1,6 km/h (1 Bft) 95,73 %
31.12.2015 21:25 -1,2 C 85 % 1027,9 hPa 0,0 l/m 0,9 km/h (0 Bft) NO 54 0 min 0,000 mm 0,0 UV-I 0 W/m -3,4 C -1,2 C 1,6 km/h (1 Bft) 98,21 %
31.12.2015 21:30 -1,2 C 84 % 1027,8 hPa 0,0 l/m 0,0 km/h (0 Bft) NO 54 0 min 0,000 mm 0,0 UV-I 0 W/m -3,5 C -1,2 C 1,6 km/h (1 Bft) 96,67 %
31.12.2015 21:35 -1,2 C 85 % 1027,8 hPa 0,0 l/m 0,1 km/h (0 Bft) NO 54 0 min 0,000 mm 0,0 UV-I 0 W/m -3,4 C -1,2 C 1,6 km/h (1 Bft) 97,46 %
31.12.2015 21:40 -1,2 C 85 % 1027,8 hPa 0,0 l/m 1,8 km/h (1 Bft) NO 54 0 min 0,000 mm 0,0 UV-I 0 W/m -3,4 C -1,2 C 3,2 km/h (1 Bft) 99,17 %
31.12.2015 21:45 -1,2 C 86 % 1027,8 hPa 0,0 l/m 0,7 km/h (0 Bft) NO 54 0 min 0,000 mm 0,0 UV-I 0 W/m -3,2 C -1,2 C 1,6 km/h (1 Bft) 99,07 %
31.12.2015 21:50 -1,2 C 88 % 1027,8 hPa 0,0 l/m 0,1 km/h (0 Bft) NO 54 0 min 0,000 mm 0,0 UV-I 0 W/m -2,9 C -1,2 C 1,6 km/h (1 Bft) 100,00 %
31.12.2015 21:55 -1,3 C 88 % 1027,8 hPa 0,0 l/m 0,0 km/h (0 Bft) NO 54 0 min 0,000 mm 0,0 UV-I 0 W/m -3,0 C -1,3 C 0,0 km/h (0 Bft) 99,13 %
31.12.2015 22:00 -1,3 C 88 % 1027,8 hPa 0,0 l/m 0,0 km/h (0 Bft) NO 54 0 min 0,000 mm 0,0 UV-I 0 W/m -3,0 C -1,3 C 1,6 km/h (1 Bft) 98,41 %
31.12.2015 22:05 -1,3 C 89 % 1027,8 hPa 0,0 l/m 0,0 km/h (0 Bft) NO 54 0 min 0,000 mm 0,0 UV-I 0 W/m -2,9 C -1,3 C 1,6 km/h (1 Bft) 100,00 %
31.12.2015 22:10 -1,3 C 90 % 1027,9 hPa 0,0 l/m 0,1 km/h (0 Bft) NO 54 0 min 0,000 mm 0,0 UV-I 0 W/m -2,7 C -1,3 C 1,6 km/h (1 Bft) 100,00 %
31.12.2015 22:15 -1,3 C 90 % 1027,8 hPa 0,0 l/m 0,5 km/h (0 Bft) NO 53 0 min 0,000 mm 0,0 UV-I 0 W/m -2,7 C -1,3 C 1,6 km/h (1 Bft) 100,00 %
31.12.2015 22:20 -1,3 C 91 % 1027,8 hPa 0,0 l/m 0,1 km/h (0 Bft) NO 53 0 min 0,000 mm 0,0 UV-I 0 W/m -2,6 C -1,3 C 1,6 km/h (1 Bft) 100,00 %
31.12.2015 22:25 -1,3 C 90 % 1027,8 hPa 0,0 l/m 0,1 km/h (0 Bft) NO 53 0 min 0,000 mm 0,0 UV-I 0 W/m -2,7 C -1,3 C 1,6 km/h (1 Bft) 99,10 %
31.12.2015 22:30 -1,4 C 91 % 1027,9 hPa 0,0 l/m 0,4 km/h (0 Bft) NO 40 0 min 0,000 mm 0,0 UV-I 0 W/m -2,7 C -1,4 C 3,2 km/h (1 Bft) 100,00 %
31.12.2015 22:35 -1,4 C 91 % 1027,8 hPa 0,0 l/m 0,4 km/h (0 Bft) N-NO 15 0 min 0,000 mm 0,0 UV-I 0 W/m -2,7 C -1,4 C 1,6 km/h (1 Bft) 99,13 %
31.12.2015 22:40 -1,4 C 91 % 1027,8 hPa 0,0 l/m 0,8 km/h (0 Bft) N-NO 15 0 min 0,000 mm 0,0 UV-I 0 W/m -2,7 C -1,4 C 3,2 km/h (1 Bft) 100,00 %
31.12.2015 22:45 -1,4 C 90 % 1027,9 hPa 0,0 l/m 2,0 km/h (1 Bft) N-NO 18 0 min 0,000 mm 0,0 UV-I 0 W/m -2,8 C -1,4 C 4,8 km/h (1 Bft) 98,39 %
31.12.2015 22:50 -1,4 C 90 % 1027,9 hPa 0,0 l/m 0,5 km/h (0 Bft) N-NO 18 0 min 0,000 mm 0,0 UV-I 0 W/m -2,8 C -1,4 C 3,2 km/h (1 Bft) 100,00 %
31.12.2015 22:55 -1,4 C 91 % 1027,9 hPa 0,0 l/m 0,6 km/h (0 Bft) N-NO 18 0 min 0,000 mm 0,0 UV-I 0 W/m -2,7 C -1,4 C 3,2 km/h (1 Bft) 98,33 %
31.12.2015 23:00 -1,4 C 92 % 1028,0 hPa 0,0 l/m 0,7 km/h (0 Bft) N-NO 18 0 min 0,000 mm 0,0 UV-I 0 W/m -2,5 C -1,4 C 3,2 km/h (1 Bft) 99,11 %
31.12.2015 23:05 -1,4 C 92 % 1027,9 hPa 0,0 l/m 2,1 km/h (1 Bft) NO 40 0 min 0,000 mm 0,0 UV-I 0 W/m -2,5 C -1,4 C 6,4 km/h (2 Bft) 98,33 %
31.12.2015 23:10 -1,4 C 92 % 1027,9 hPa 0,0 l/m 3,7 km/h (1 Bft) NO 55 0 min 0,000 mm 0,0 UV-I 0 W/m -2,5 C -1,4 C 4,8 km/h (1 Bft) 97,39 %
31.12.2015 23:15 -1,4 C 91 % 1027,9 hPa 0,0 l/m 3,4 km/h (1 Bft) NO 48 0 min 0,000 mm 0,0 UV-I 0 W/m -2,7 C -1,4 C 6,4 km/h (2 Bft) 96,61 %
31.12.2015 23:20 -1,5 C 90 % 1027,9 hPa 0,0 l/m 1,9 km/h (1 Bft) NO 48 0 min 0,000 mm 0,0 UV-I 0 W/m -2,9 C -1,5 C 3,2 km/h (1 Bft) 96,58 %
31.12.2015 23:25 -1,4 C 91 % 1027,8 hPa 0,0 l/m 2,1 km/h (1 Bft) NO 48 0 min 0,000 mm 0,0 UV-I 0 W/m -2,7 C -1,4 C 3,2 km/h (1 Bft) 97,39 %
31.12.2015 23:30 -1,5 C 91 % 1027,9 hPa 0,0 l/m 1,7 km/h (1 Bft) NO 48 0 min 0,000 mm 0,0 UV-I 0 W/m -2,8 C -1,5 C 3,2 km/h (1 Bft) 97,62 %
31.12.2015 23:35 -1,4 C 92 % 1027,8 hPa 0,0 l/m 1,6 km/h (1 Bft) NO 48 0 min 0,000 mm 0,0 UV-I 0 W/m -2,5 C -1,4 C 3,2 km/h (1 Bft) 97,32 %
31.12.2015 23:40 -1,4 C 91 % 1027,8 hPa 0,0 l/m 1,2 km/h (1 Bft) NO 48 0 min 0,000 mm 0,0 UV-I 0 W/m -2,7 C -1,4 C 3,2 km/h (1 Bft) 97,39 %
31.12.2015 23:45 -1,4 C 92 % 1027,8 hPa 0,0 l/m 2,1 km/h (1 Bft) NO 48 0 min 0,000 mm 0,0 UV-I 0 W/m -2,5 C -1,4 C 3,2 km/h (1 Bft) 99,15 %
31.12.2015 23:50 -1,3 C 92 % 1027,8 hPa 0,0 l/m 1,5 km/h (1 Bft) NO 48 0 min 0,000 mm 0,0 UV-I 0 W/m -2,4 C -1,3 C 3,2 km/h (1 Bft) 98,31 %
31.12.2015 23:55 -1,4 C 92 % 1027,7 hPa 0,0 l/m 0,1 km/h (0 Bft) NO 48 0 min 0,000 mm 0,0 UV-I 0 W/m -2,5 C -1,4 C 1,6 km/h (1 Bft) 99,11 %
_ Min-Zeit 07:55 13:20 03:55 - 18:45 - - - - - - 06:15 01:30 18:45 06:55
Minimum _ -4,9 C 71 % 1024,6 hPa - 0,0 km/h (0 Bft) - - - - - - -7,5 C -16,0 C 0,0 km/h (0 Bft) 94,31 %
_ Max-Zeit 14:25 23:00 17:20 00:01 01:30 - - 11:35 12:05 11:10 12:05 23:50 14:25 00:50 00:05
Maximum _ -0,3 C 92 % 1028,6 hPa 0,0 l/m 28,6 km/h
O-NO (4 Bft)
- - 10 min 0,102 mm 0,6 UV-I 299 W/m -2,4 C -0,3 C 45,1 km/h
O-NO (6 Bft)
100,00 %
Durchschnitt _ -2,3 C 79 % 1027,0 hPa #0,0 l/m 9,1 km/h (2 Bft) NO - #5:35 h #0,762 mm 0,5 UV-I 162 W/m -5,4 C -6,2 C 14,6 km/h (3 Bft) 98,53 %